リニア彗星

C/2012 L1 ( LINEAR )

English version
Home page
Updated on June 15, 2014

---------------------------------------------------------------------

・ プロフィール

発見日 2012年6月1日
発見光度 19.0等
発見者 Lincoln Laboratory Near-Earth Asteroid Research project

・ 写真集

・ 軌道要素

Epoch 2012 Dec. 19.0 TT = JDT 2456280.5
T 2012 Dec. 25.41497 TT                                 MPC
q   2.2624047            (2000.0)            P               Q
z  +0.0012839      Peri.  140.28998     +0.00726400     -0.05699471
 +/-0.0000007      Node   271.76648     +0.45250732     +0.89049234
e   0.9970953      Incl.   87.21953     +0.89173110     -0.45141444
From 1365 observations 2012 June 1-2013 Apr. 13, mean residual 0".5.

・ 星図

・ 光度変化

        m1 = 10.0 + 5 logΔ + 10.0 log r

---------------------------------------------------------------------

軌道要素はM.P.E.C. 2014-H26に掲載されたものです。
星図はステラナビゲータ Ver.8 (アストロアーツ) で作成したものです。
光度グラフはComet for Windowsで作成したものです。

---------------------------------------------------------------------

Copyright(C) Seiichi Yoshida (comet@aerith.net). All rights reserved.